• In Kazakhstan
  • List of Countries
  • For 7 days
  • Water Temperature
  • Satellite Maps
  • Weather Map
  • News
  • Weather Widgets
  • user-avatar
    Login

    Hourly Weather San Luis

    Today, 22 March, Friday

    Time Temperature Precipitation Wind Pressure Humidity
    00:00 +15°C° 0 mm 7 mps 698 mmHg 59%
    01:00 +15°C° 0 mm 6 mps 699 mmHg 60%
    02:00 +15°C° 0 mm 6 mps 699 mmHg 61%
    03:00 +14°C° 0 mm 5 mps 699 mmHg 63%
    04:00 +14°C° 0 mm 5 mps 699 mmHg 65%
    05:00 +13°C° 0 mm 4 mps 699 mmHg 67%
    06:00 +15°C° 0 mm 4 mps 699 mmHg 63%
    07:00 +17°C° 0 mm 3 mps 700 mmHg 58%
    08:00 +18°C° 0 mm 3 mps 700 mmHg 54%
    09:00 +20°C° 0 mm 3 mps 701 mmHg 48%
    10:00 +23°C° 0 mm 2 mps 701 mmHg 42%
    11:00 +25°C° 0 mm 2 mps 702 mmHg 36%
    12:00 +26°C° 0 mm 2 mps 701 mmHg 33%
    13:00 +27°C° 0 mm 1 mps 701 mmHg 31%
    14:00 +28°C° 0 mm 1 mps 701 mmHg 28%
    15:00 +28°C° 0 mm 1 mps 700 mmHg 28%
    16:00 +28°C° 0 mm 1 mps 700 mmHg 28%
    17:00 +28°C° 0 mm 1 mps 699 mmHg 28%
    18:00 +26°C° 0 mm 2 mps 699 mmHg 36%
    19:00 +23°C° 0 mm 2 mps 699 mmHg 43%
    20:00 +19°C° 0 mm 2 mps 698 mmHg 50%
    21:00 +19°C° 0 mm 3 mps 698 mmHg 52%
    22:00 +19°C° 0 mm 3 mps 699 mmHg 54%
    23:00 +19°C° 0 mm 4 mps 699 mmHg 56%

    Tomorrow, 23 March, Saturday

    Time Temperature Precipitation Wind Pressure Humidity
    00:00 +19°C° 0 mm 5 mps 699 mmHg 57%
    01:00 +19°C° 0 mm 6 mps 698 mmHg 57%
    02:00 +18°C° 0 mm 7 mps 698 mmHg 58%
    03:00 +18°C° 0 mm 7 mps 698 mmHg 59%
    04:00 +18°C° 0 mm 7 mps 698 mmHg 60%
    05:00 +18°C° 0 mm 7 mps 698 mmHg 61%
    06:00 +20°C° 0 mm 8 mps 698 mmHg 58%
    07:00 +21°C° 0 mm 8 mps 698 mmHg 55%
    08:00 +22°C° 0 mm 9 mps 699 mmHg 52%
    09:00 +24°C° 0 mm 8 mps 699 mmHg 46%
    10:00 +27°C° 0 mm 7 mps 699 mmHg 40%
    11:00 +29°C° 0 mm 7 mps 700 mmHg 35%
    12:00 +30°C° 0 mm 6 mps 699 mmHg 32%
    13:00 +32°C° 0 mm 4 mps 699 mmHg 30%
    14:00 +31°C° 0 mm 3 mps 699 mmHg 28%
    15:00 +31°C° 0 mm 3 mps 698 mmHg 28%
    16:00 +31°C° 0 mm 2 mps 698 mmHg 28%
    17:00 +31°C° 0 mm 2 mps 698 mmHg 29%
    18:00 +28°C° 0 mm 2 mps 698 mmHg 36%
    19:00 +25°C° 0 mm 2 mps 698 mmHg 44%
    20:00 +22°C° 0 mm 1 mps 698 mmHg 52%
    21:00 +21°C° 0 mm 2 mps 699 mmHg 48%
    22:00 +21°C° 0 mm 3 mps 699 mmHg 45%
    23:00 +20°C° 0 mm 3 mps 700 mmHg 42%

    Day after tomorrow, 24 March, Sunday

    Time Temperature Precipitation Wind Pressure Humidity
    00:00 +20°C° 0 mm 4 mps 700 mmHg 41%
    01:00 +19°C° 0 mm 4 mps 701 mmHg 40%
    02:00 +19°C° 0 mm 4 mps 701 mmHg 40%
    03:00 +17°C° 0 mm 5 mps 701 mmHg 39%
    04:00 +17°C° 0 mm 5 mps 701 mmHg 39%
    05:00 +16°C° 0 mm 6 mps 701 mmHg 39%
    06:00 +16°C° 0 mm 6 mps 702 mmHg 37%
    07:00 +17°C° 0 mm 6 mps 703 mmHg 35%
    08:00 +17°C° 0 mm 7 mps 703 mmHg 33%
    09:00 +20°C° 0 mm 7 mps 704 mmHg 30%
    10:00 +22°C° 0 mm 6 mps 704 mmHg 27%
    11:00 +24°C° 0 mm 6 mps 704 mmHg 24%
    12:00 +26°C° 0 mm 6 mps 704 mmHg 24%
    13:00 +26°C° 0 mm 6 mps 703 mmHg 24%
    14:00 +27°C° 0 mm 6 mps 703 mmHg 23%
    15:00 +27°C° 0 mm 6 mps 702 mmHg 25%
    16:00 +26°C° 0 mm 6 mps 701 mmHg 26%
    17:00 +26°C° 0 mm 7 mps 701 mmHg 27%
    18:00 +23°C° 0 mm 6 mps 701 mmHg 30%
    19:00 +21°C° 0 mm 6 mps 701 mmHg 34%
    20:00 +19°C° 0 mm 6 mps 701 mmHg 37%
    21:00 +19°C° 0 mm 6 mps 701 mmHg 38%
    22:00 +17°C° 0 mm 5 mps 701 mmHg 39%
    23:00 +17°C° 0 mm 5 mps 701 mmHg 41%

    25 March, Monday

    Time Temperature Precipitation Wind Pressure Humidity
    00:00 +17°C° 0 mm 5 mps 701 mmHg 42%
    01:00 +17°C° 0 mm 5 mps 701 mmHg 42%
    02:00 +16°C° 0 mm 5 mps 700 mmHg 43%
    03:00 +16°C° 0 mm 5 mps 700 mmHg 45%
    04:00 +17°C° 0 mm 4 mps 700 mmHg 47%
    05:00 +17°C° 0 mm 4 mps 700 mmHg 49%
    06:00 +17°C° 0 mm 4 mps 700 mmHg 48%
    07:00 +18°C° 0 mm 4 mps 701 mmHg 47%
    08:00 +19°C° 0 mm 4 mps 702 mmHg 47%
    09:00 +21°C° 0 mm 4 mps 702 mmHg 44%
    10:00 +23°C° 0 mm 4 mps 702 mmHg 42%
    11:00 +25°C° 0 mm 3 mps 702 mmHg 39%
    12:00 +24°C° 0 mm 3 mps 702 mmHg 43%
    13:00 +22°C° 0 mm 3 mps 701 mmHg 48%
    14:00 +21°C° 0 mm 2 mps 700 mmHg 52%
    15:00 +21°C° 0 mm 2 mps 700 mmHg 52%
    16:00 +21°C° 0 mm 3 mps 699 mmHg 52%
    17:00 +21°C° 0 mm 3 mps 699 mmHg 53%
    18:00 +20°C° 0 mm 3 mps 700 mmHg 55%
    19:00 +19°C° 0 mm 4 mps 700 mmHg 57%
    20:00 +19°C° 0 mm 5 mps 701 mmHg 59%
    21:00 +19°C° 0 mm 5 mps 701 mmHg 58%
    22:00 +19°C° 0 mm 4 mps 702 mmHg 58%
    23:00 +19°C° 0 mm 4 mps 702 mmHg 58%

    26 March, Tuesday

    Time Temperature Precipitation Wind Pressure Humidity
    00:00 +18°C° 0 mm 4 mps 702 mmHg 60%
    01:00 +17°C° 0 mm 4 mps 702 mmHg 62%
    02:00 +17°C° 0 mm 4 mps 702 mmHg 63%
    03:00 +15°C° 0 mm 4 mps 702 mmHg 65%
    04:00 +15°C° 0 mm 4 mps 702 mmHg 66%
    05:00 +15°C° 0 mm 4 mps 702 mmHg 67%
    06:00 +15°C° 0.1 mm 4 mps 703 mmHg 68%
    07:00 +15°C° 0.1 mm 4 mps 703 mmHg 68%
    08:00 +17°C° 0.1 mm 4 mps 704 mmHg 68%
    09:00 +17°C° 0.1 mm 4 mps 704 mmHg 68%
    10:00 +18°C° 0.1 mm 3 mps 704 mmHg 68%
    11:00 +18°C° 0.1 mm 3 mps 705 mmHg 68%
    12:00 +18°C° 0.3 mm 3 mps 704 mmHg 67%
    13:00 +18°C° 0.3 mm 4 mps 704 mmHg 66%
    14:00 +19°C° 0.3 mm 4 mps 704 mmHg 65%
    15:00 +19°C° 0.1 mm 5 mps 704 mmHg 64%
    16:00 +17°C° 0.1 mm 5 mps 704 mmHg 63%
    17:00 +17°C° 0.1 mm 5 mps 704 mmHg 62%
    18:00 +16°C° 0 mm 5 mps 704 mmHg 64%
    19:00 +17°C° 0 mm 4 mps 704 mmHg 67%
    20:00 +15°C° 0 mm 4 mps 704 mmHg 69%
    21:00 +15°C° 0 mm 4 mps 705 mmHg 70%
    22:00 +16°C° 0 mm 3 mps 705 mmHg 71%
    23:00 +16°C° 0 mm 3 mps 705 mmHg 71%

    27 March, Wednesday

    Time Temperature Precipitation Wind Pressure Humidity
    00:00 +14°C° 0 mm 3 mps 705 mmHg 74%
    01:00 +15°C° 0 mm 2 mps 704 mmHg 77%
    02:00 +14°C° 0 mm 2 mps 704 mmHg 80%
    03:00 +14°C° 0 mm 2 mps 704 mmHg 81%
    04:00 +14°C° 0 mm 2 mps 704 mmHg 81%
    05:00 +13°C° 0 mm 3 mps 703 mmHg 82%
    06:00 +14°C° 0 mm 3 mps 704 mmHg 78%
    07:00 +16°C° 0 mm 3 mps 704 mmHg 75%
    08:00 +17°C° 0 mm 3 mps 704 mmHg 72%
    09:00 +18°C° 0 mm 4 mps 704 mmHg 67%
    10:00 +19°C° 0 mm 4 mps 704 mmHg 62%
    11:00 +20°C° 0 mm 4 mps 705 mmHg 58%
    12:00 +21°C° 0 mm 4 mps 704 mmHg 55%
    13:00 +22°C° 0 mm 5 mps 703 mmHg 53%
    14:00 +22°C° 0 mm 5 mps 703 mmHg 51%
    15:00 +22°C° 0 mm 5 mps 702 mmHg 51%
    16:00 +22°C° 0 mm 5 mps 702 mmHg 50%
    17:00 +22°C° 0 mm 4 mps 702 mmHg 49%
    18:00 +20°C° 0 mm 3 mps 702 mmHg 58%
    19:00 +18°C° 0 mm 2 mps 701 mmHg 66%
    20:00 +16°C° 0 mm 1 mps 701 mmHg 75%
    21:00 +16°C° 0 mm 1 mps 701 mmHg 74%
    22:00 +16°C° 0 mm 2 mps 701 mmHg 74%
    23:00 +16°C° 0 mm 2 mps 701 mmHg 73%
    Show more